| time (UTC) | temp C | wind direction | speed KPH | gust KPH | rain 1hr cm | rain 24hr cm | rain mn cm | humidity % | barometer mb |
| 20260506233349 | 22 | 280 | 0.0 | 0.0 | 0.00 | 0.00 | 0.00 | 62 | 1022.6 |
| 20260506232847 | 22 | 316 | 0.0 | 0.0 | 0.00 | 0.00 | 0.00 | 63 | 1022.3 |
| 20260506232342 | 22 | 322 | 0.0 | 0.0 | 0.00 | 0.00 | 0.00 | 62 | 1022.2 |
| 20260506231833 | 22 | 321 | 0.0 | 0.0 | 0.00 | 0.00 | 0.00 | 62 | 1022.3 |
| 20260506231331 | 22 | 331 | 0.0 | 0.0 | 0.00 | 0.00 | 0.00 | 63 | 1022.4 |
| 20260506230828 | 22 | 42 | 0.0 | 0.0 | 0.00 | 0.00 | 0.00 | 63 | 1022.3 |
| 20260506230325 | 23 | 285 | 0.0 | 0.0 | 0.00 | 0.00 | 0.00 | 63 | 1022.3 |
| 20260506225820 | 23 | 250 | 0.0 | 0.0 | 0.00 | 0.00 | 0.00 | 62 | 1022.6 |
| 20260506225318 | 22 | 322 | 0.0 | 0.0 | 0.00 | 0.00 | 0.00 | 64 | 1022.6 |
| 20260506224815 | 22 | 330 | 0.0 | 0.0 | 0.00 | 0.00 | 0.00 | 63 | 1022.4 |
| 20260506224312 | 23 | 320 | 0.0 | 0.0 | 0.00 | 0.00 | 0.00 | 62 | 1022.5 |
| 20260506223808 | 23 | 323 | 0.0 | 0.0 | 0.00 | 0.00 | 0.00 | 61 | 1022.5 |
| 20260506223303 | 22 | 304 | 0.0 | 0.0 | 0.00 | 0.00 | 0.00 | 62 | 1022.5 |
| 20260506222801 | 23 | 20 | 0.0 | 0.0 | 0.00 | 0.00 | 0.00 | 60 | 1022.6 |
| 20260506222256 | 23 | 281 | 0.0 | 0.0 | 0.00 | 0.00 | 0.00 | 62 | 1022.7 |
| 20260506221754 | 23 | 300 | 0.0 | 0.0 | 0.00 | 0.00 | 0.00 | 62 | 1022.5 |
| 20260506221252 | 23 | 309 | 0.0 | 0.0 | 0.00 | 0.00 | 0.00 | 62 | 1022.7 |
| 20260506220749 | 23 | 320 | 0.0 | 0.0 | 0.00 | 0.00 | 0.00 | 63 | 1022.7 |
| 20260506220238 | 23 | 276 | 0.0 | 0.0 | 0.00 | 0.00 | 0.00 | 55 | 1022.8 |
| 20260506215736 | 23 | 309 | 0.0 | 0.0 | 0.00 | 0.00 | 0.00 | 54 | 1022.8 |
| 20260506215231 | 24 | 325 | 0.0 | 0.0 | 0.00 | 0.00 | 0.00 | 55 | 1022.8 |
| 20260506214727 | 24 | 333 | 0.0 | 0.0 | 0.00 | 0.00 | 0.00 | 55 | 1022.9 |
| 20260506214225 | 24 | 40 | 0.0 | 0.0 | 0.00 | 0.00 | 0.00 | 53 | 1022.8 |
| 20260506213723 | 24 | 294 | 0.0 | 0.0 | 0.00 | 0.00 | 0.00 | 55 | 1022.8 |
| 20260506213220 | 24 | 326 | 0.0 | 0.0 | 0.00 | 0.00 | 0.00 | 55 | 1023.0 |
| 20260506212717 | 24 | 17 | 0.0 | 0.0 | 0.00 | 0.00 | 0.00 | 55 | 1023.2 |
| 20260506212212 | 24 | 325 | 0.0 | 0.0 | 0.00 | 0.00 | 0.00 | 55 | 1023.0 |
| 20260506211708 | 25 | 326 | 0.0 | 0.0 | 0.00 | 0.00 | 0.00 | 52 | 1023.1 |
| 20260506211204 | 24 | 311 | 0.0 | 0.0 | 0.00 | 0.00 | 0.00 | 54 | 1023.0 |
| 20260506210702 | 23 | 338 | 0.0 | 0.0 | 0.00 | 0.00 | 0.00 | 56 | 1023.0 |
| 20260506210158 | 23 | 307 | 0.0 | 0.0 | 0.00 | 0.00 | 0.00 | 56 | 1023.0 |
| 20260506205656 | 23 | 305 | 0.0 | 0.0 | 0.00 | 0.00 | 0.00 | 55 | 1023.3 |
| 20260506205150 | 23 | 328 | 0.0 | 0.0 | 0.00 | 0.00 | 0.00 | 56 | 1023.1 |
| 20260506204648 | 23 | 351 | 0.0 | 0.0 | 0.00 | 0.00 | 0.00 | 56 | 1023.1 |
| 20260506204145 | 22 | 331 | 0.0 | 0.0 | 0.00 | 0.00 | 0.00 | 59 | 1023.2 |
| 20260506203643 | 22 | 322 | 0.0 | 0.0 | 0.00 | 0.00 | 0.00 | 59 | 1023.3 |
| 20260506203140 | 23 | 342 | 0.0 | 0.0 | 0.00 | 0.00 | 0.00 | 56 | 1023.4 |
| 20260506202638 | 23 | 289 | 0.0 | 0.0 | 0.00 | 0.00 | 0.00 | 56 | 1023.2 |
| 20260506202133 | 22 | 330 | 0.0 | 0.0 | 0.00 | 0.00 | 0.00 | 57 | 1023.4 |
| 20260506201631 | 23 | 334 | 0.0 | 0.0 | 0.00 | 0.00 | 0.00 | 59 | 1023.7 |
| 20260506201127 | 22 | 299 | 0.0 | 0.0 | 0.00 | 0.00 | 0.00 | 57 | 1023.7 |
| 20260506200624 | 22 | 328 | 0.0 | 0.0 | 0.00 | 0.00 | 0.00 | 58 | 1023.5 |
| 20260506200120 | 22 | 335 | 0.0 | 0.0 | 0.00 | 0.00 | 0.00 | 59 | 1023.7 |
| 20260506195617 | 22 | 337 | 0.0 | 0.0 | 0.00 | 0.00 | 0.00 | 60 | 1023.8 |
| 20260506195114 | 22 | 323 | 0.0 | 0.0 | 0.00 | 0.00 | 0.00 | 60 | 1024.0 |
| 20260506194611 | 22 | 357 | 0.0 | 0.0 | 0.00 | 0.00 | 0.00 | 61 | 1024.0 |
| 20260506194107 | 22 | 321 | 0.0 | 0.0 | 0.00 | 0.00 | 0.00 | 62 | 1023.9 |
| 20260506193605 | 22 | 320 | 0.0 | 0.0 | 0.00 | 0.00 | 0.00 | 62 | 1024.0 |
| 20260506193102 | 22 | 299 | 0.0 | 0.0 | 0.00 | 0.00 | 0.00 | 61 | 1024.1 |
| 20260506192559 | 22 | 319 | 0.0 | 0.0 | 0.00 | 0.00 | 0.00 | 62 | 1024.0 |
| 20260506192055 | 21 | 308 | 0.0 | 0.0 | 0.00 | 0.00 | 0.00 | 62 | 1024.4 |
| 20260506191551 | 22 | 339 | 0.0 | 0.0 | 0.00 | 0.00 | 0.00 | 62 | 1024.4 |
| 20260506191047 | 22 | 326 | 0.0 | 0.0 | 0.00 | 0.00 | 0.00 | 65 | 1024.4 |
| 20260506190544 | 22 | 327 | 0.0 | 0.0 | 0.00 | 0.00 | 0.00 | 61 | 1024.4 |
| 20260506190042 | 22 | 5 | 0.0 | 0.0 | 0.00 | 0.00 | 0.00 | 61 | 1024.1 |
| 20260506185539 | 22 | 327 | 0.0 | 0.0 | 0.00 | 0.00 | 0.00 | 65 | 1024.3 |
| 20260506185035 | 22 | 309 | 0.0 | 0.0 | 0.00 | 0.00 | 0.00 | 61 | 1024.3 |
| 20260506184533 | 21 | 332 | 0.0 | 0.0 | 0.00 | 0.00 | 0.00 | 64 | 1024.5 |
| 20260506184030 | 21 | 321 | 0.0 | 0.0 | 0.00 | 0.00 | 0.00 | 64 | 1024.5 |
| 20260506183526 | 21 | 318 | 0.0 | 0.0 | 0.00 | 0.00 | 0.00 | 63 | 1024.5 |
| 20260506183023 | 21 | 319 | 0.0 | 0.0 | 0.00 | 0.00 | 0.00 | 62 | 1024.5 |
| 20260506182520 | 22 | 319 | 0.0 | 0.0 | 0.00 | 0.00 | 0.00 | 63 | 1024.5 |
| 20260506182017 | 21 | 327 | 0.0 | 0.0 | 0.00 | 0.00 | 0.00 | 64 | 1024.6 |
| 20260506181515 | 21 | 21 | 0.0 | 0.0 | 0.00 | 0.00 | 0.00 | 64 | 1024.5 |
| 20260506181012 | 21 | 336 | 0.0 | 0.0 | 0.00 | 0.00 | 0.00 | 64 | 1024.7 |
| 20260506180508 | 21 | 354 | 0.0 | 0.0 | 0.00 | 0.00 | 0.00 | 63 | 1024.3 |
| 20260506180006 | 21 | 323 | 0.0 | 0.0 | 0.00 | 0.00 | 0.00 | 64 | 1024.5 |
| 20260506175501 | 21 | 309 | 0.0 | 0.0 | 0.00 | 0.00 | 0.00 | 62 | 1024.6 |
| 20260506174958 | 21 | 322 | 0.0 | 0.0 | 0.00 | 0.00 | 0.00 | 62 | 1024.6 |
| 20260506174456 | 21 | 307 | 0.0 | 0.0 | 0.00 | 0.00 | 0.00 | 63 | 1024.5 |
| 20260506173952 | 21 | 320 | 0.0 | 0.0 | 0.00 | 0.00 | 0.00 | 65 | 1024.6 |
| 20260506173450 | 20 | 320 | 0.0 | 0.0 | 0.00 | 0.00 | 0.00 | 65 | 1024.5 |
| 20260506172946 | 20 | 315 | 0.0 | 0.0 | 0.00 | 0.00 | 0.00 | 65 | 1024.5 |
| 20260506172444 | 20 | 323 | 0.0 | 0.0 | 0.00 | 0.00 | 0.00 | 68 | 1024.6 |
| 20260506171940 | 20 | 339 | 0.0 | 0.0 | 0.00 | 0.00 | 0.00 | 69 | 1024.5 |
| 20260506171438 | 20 | 328 | 0.0 | 0.0 | 0.00 | 0.00 | 0.00 | 68 | 1024.6 |
| 20260506170935 | 20 | 303 | 0.0 | 0.0 | 0.00 | 0.00 | 0.00 | 67 | 1024.7 |
| 20260506170431 | 20 | 322 | 0.0 | 0.0 | 0.00 | 0.00 | 0.00 | 64 | 1024.8 |
| 20260506165924 | 20 | 328 | 0.0 | 0.0 | 0.00 | 0.00 | 0.00 | 67 | 1024.5 |
| 20260506165423 | 19 | 359 | 0.0 | 0.0 | 0.00 | 0.00 | 0.00 | 67 | 1024.7 |
| 20260506164918 | 18 | 328 | 0.0 | 0.0 | 0.00 | 0.00 | 0.00 | 68 | 1024.7 |
| 20260506164415 | 18 | 331 | 0.0 | 0.0 | 0.00 | 0.00 | 0.00 | 71 | 1024.7 |
| 20260506163913 | 18 | 324 | 0.0 | 0.0 | 0.00 | 0.00 | 0.00 | 69 | 1024.7 |
| 20260506163407 | 18 | 332 | 0.0 | 0.0 | 0.00 | 0.00 | 0.00 | 68 | 1024.9 |
| 20260506162902 | 17 | 321 | 0.0 | 0.0 | 0.00 | 0.00 | 0.00 | 70 | 1024.8 |
| 20260506162400 | 17 | 323 | 0.0 | 0.0 | 0.00 | 0.00 | 0.00 | 70 | 1024.7 |
| 20260506161852 | 17 | 302 | 0.0 | 0.0 | 0.00 | 0.00 | 0.00 | 71 | 1024.9 |
| 20260506161349 | 17 | 329 | 0.0 | 0.0 | 0.00 | 0.00 | 0.00 | 71 | 1024.7 |
| 20260506160842 | 17 | 335 | 0.0 | 0.0 | 0.00 | 0.00 | 0.00 | 72 | 1024.9 |
| 20260506160339 | 17 | 322 | 0.0 | 0.0 | 0.00 | 0.00 | 0.00 | 73 | 1024.8 |
| 20260506155837 | 16 | 324 | 0.0 | 0.0 | 0.00 | 0.00 | 0.00 | 74 | 1024.9 |
| 20260506155333 | 15 | 348 | 0.0 | 0.0 | 0.00 | 0.00 | 0.00 | 77 | 1024.8 |
| 20260506153450 | 15 | 326 | 0.0 | 0.0 | 0.00 | 0.00 | 0.00 | 83 | 1024.8 |
| 20260506152948 | 15 | 323 | 0.0 | 0.0 | 0.00 | 0.00 | 0.00 | 83 | 1024.7 |
| 20260506152445 | 14 | 323 | 0.0 | 0.0 | 0.00 | 0.00 | 0.00 | 82 | 1024.8 |
| 20260506151943 | 14 | 328 | 0.0 | 0.0 | 0.00 | 0.00 | 0.00 | 83 | 1024.8 |
| 20260506151440 | 14 | 334 | 0.0 | 0.0 | 0.00 | 0.00 | 0.00 | 84 | 1024.7 |
| 20260506150938 | 14 | 322 | 0.0 | 0.0 | 0.00 | 0.00 | 0.00 | 84 | 1024.7 |
| 20260506150433 | 13 | 325 | 0.0 | 0.0 | 0.00 | 0.00 | 0.00 | 84 | 1024.9 |
| 20260506145931 | 13 | 303 | 0.0 | 0.0 | 0.00 | 0.00 | 0.00 | 85 | 1024.8 |
| 20260506145427 | 13 | 323 | 0.0 | 0.0 | 0.00 | 0.00 | 0.00 | 85 | 1024.5 |
| 20260506144925 | 13 | 319 | 0.0 | 0.0 | 0.00 | 0.00 | 0.00 | 85 | 1024.7 |
| 20260506144421 | 13 | 320 | 0.0 | 0.0 | 0.00 | 0.00 | 0.00 | 86 | 1024.8 |
| 20260506143920 | 13 | 316 | 0.0 | 0.0 | 0.00 | 0.00 | 0.00 | 86 | 1024.7 |
| 20260506143416 | 13 | 318 | 0.0 | 0.0 | 0.00 | 0.00 | 0.00 | 86 | 1024.6 |
| 20260506142914 | 13 | 324 | 0.0 | 0.0 | 0.00 | 0.00 | 0.00 | 86 | 1024.6 |
| 20260506142412 | 13 | 323 | 0.0 | 0.0 | 0.00 | 0.00 | 0.00 | 86 | 1024.5 |
| 20260506141910 | 13 | 298 | 0.0 | 0.0 | 0.00 | 0.00 | 0.00 | 86 | 1024.4 |
| 20260506141408 | 13 | 316 | 0.0 | 0.0 | 0.00 | 0.00 | 0.00 | 87 | 1024.6 |
| 20260506140906 | 13 | 325 | 0.0 | 0.0 | 0.00 | 0.00 | 0.00 | 87 | 1024.5 |
| 20260506140402 | 13 | 326 | 0.0 | 0.0 | 0.00 | 0.00 | 0.00 | 88 | 1024.4 |
| 20260506135900 | 12 | 331 | 0.0 | 0.0 | 0.00 | 0.00 | 0.00 | 88 | 1024.3 |
| 20260506135356 | 12 | 325 | 0.0 | 0.0 | 0.00 | 0.00 | 0.00 | 89 | 1024.3 |
| 20260506134852 | 12 | 325 | 0.0 | 0.0 | 0.00 | 0.00 | 0.00 | 88 | 1024.3 |
| 20260506134349 | 12 | 300 | 0.0 | 0.0 | 0.00 | 0.00 | 0.00 | 89 | 1024.1 |
| 20260506133846 | 12 | 324 | 0.0 | 0.0 | 0.00 | 0.00 | 0.00 | 89 | 1024.4 |
| 20260506133342 | 12 | 321 | 0.0 | 0.0 | 0.00 | 0.00 | 0.00 | 89 | 1024.2 |
| 20260506132839 | 12 | 325 | 0.0 | 0.0 | 0.00 | 0.00 | 0.00 | 89 | 1024.2 |
| 20260506132336 | 12 | 323 | 0.0 | 0.0 | 0.00 | 0.00 | 0.00 | 89 | 1024.1 |
| 20260506131835 | 12 | 325 | 0.0 | 0.0 | 0.00 | 0.00 | 0.00 | 89 | 1024.4 |
| 20260506131330 | 12 | 324 | 0.0 | 0.0 | 0.00 | 0.00 | 0.00 | 89 | 1024.3 |
| 20260506130828 | 12 | 322 | 0.0 | 0.0 | 0.00 | 0.00 | 0.00 | 89 | 1024.1 |
| 20260506130324 | 12 | 318 | 0.0 | 0.0 | 0.00 | 0.00 | 0.00 | 89 | 1024.1 |
| 20260506125822 | 12 | 326 | 0.0 | 0.0 | 0.00 | 0.00 | 0.00 | 89 | 1024.1 |
| 20260506125320 | 12 | 321 | 0.0 | 0.0 | 0.00 | 0.00 | 0.00 | 89 | 1023.8 |
| 20260506124819 | 12 | 324 | 0.0 | 0.0 | 0.00 | 0.00 | 0.00 | 89 | 1024.0 |
| 20260506124315 | 12 | 324 | 0.0 | 0.0 | 0.00 | 0.00 | 0.00 | 89 | 1024.0 |
| 20260506123813 | 12 | 325 | 0.0 | 0.0 | 0.00 | 0.00 | 0.00 | 89 | 1023.8 |
| 20260506123311 | 12 | 321 | 0.0 | 0.0 | 0.00 | 0.00 | 0.00 | 88 | 1023.9 |
| 20260506122808 | 12 | 324 | 0.0 | 0.0 | 0.00 | 0.00 | 0.00 | 88 | 1024.0 |
| 20260506122306 | 12 | 320 | 0.0 | 0.0 | 0.00 | 0.00 | 0.00 | 88 | 1023.9 |
| 20260506121803 | 12 | 322 | 0.0 | 0.0 | 0.00 | 0.00 | 0.00 | 88 | 1023.8 |
| 20260506121259 | 12 | 321 | 0.0 | 0.0 | 0.00 | 0.00 | 0.00 | 88 | 1023.7 |
| 20260506120757 | 12 | 324 | 0.0 | 0.0 | 0.00 | 0.00 | 0.00 | 88 | 1023.8 |
| 20260506120254 | 12 | 319 | 0.0 | 0.0 | 0.00 | 0.00 | 0.00 | 88 | 1023.8 |
| 20260506115752 | 12 | 325 | 0.0 | 0.0 | 0.00 | 0.00 | 0.00 | 88 | 1023.8 |
| 20260506115250 | 12 | 320 | 0.0 | 0.0 | 0.00 | 0.00 | 0.00 | 88 | 1023.8 |
| 20260506114747 | 12 | 322 | 0.0 | 0.0 | 0.00 | 0.00 | 0.00 | 88 | 1023.7 |
| 20260506114245 | 12 | 323 | 0.0 | 0.0 | 0.00 | 0.00 | 0.00 | 88 | 1023.7 |
| 20260506113743 | 12 | 322 | 0.0 | 0.0 | 0.00 | 0.00 | 0.00 | 88 | 1023.6 |
| 20260506113240 | 12 | 324 | 0.0 | 0.0 | 0.00 | 0.00 | 0.00 | 88 | 1023.5 |
| 20260506112736 | 12 | 324 | 0.0 | 0.0 | 0.00 | 0.00 | 0.00 | 88 | 1023.5 |
| 20260506112234 | 12 | 323 | 0.0 | 0.0 | 0.00 | 0.00 | 0.00 | 88 | 1023.5 |
| 20260506111731 | 12 | 322 | 0.0 | 0.0 | 0.00 | 0.00 | 0.00 | 88 | 1023.4 |
| 20260506111230 | 12 | 318 | 0.0 | 0.0 | 0.00 | 0.00 | 0.00 | 88 | 1023.4 |
| 20260506110726 | 12 | 324 | 0.0 | 0.0 | 0.00 | 0.00 | 0.00 | 88 | 1023.5 |
| 20260506110224 | 12 | 322 | 0.0 | 0.0 | 0.00 | 0.00 | 0.00 | 88 | 1023.4 |
| 20260506105720 | 12 | 322 | 0.0 | 0.0 | 0.00 | 0.00 | 0.00 | 88 | 1023.4 |
| 20260506105217 | 12 | 328 | 0.0 | 0.0 | 0.00 | 0.00 | 0.00 | 88 | 1023.3 |
| 20260506104715 | 12 | 322 | 0.0 | 0.0 | 0.00 | 0.00 | 0.00 | 88 | 1023.3 |
| 20260506104213 | 12 | 322 | 0.0 | 0.0 | 0.00 | 0.00 | 0.00 | 88 | 1023.3 |
| 20260506103709 | 12 | 322 | 0.0 | 0.0 | 0.00 | 0.00 | 0.00 | 88 | 1023.2 |
| 20260506103206 | 12 | 322 | 0.0 | 0.0 | 0.00 | 0.00 | 0.00 | 88 | 1023.4 |
| 20260506102705 | 12 | 322 | 0.0 | 0.0 | 0.00 | 0.00 | 0.00 | 88 | 1023.2 |
| 20260506102202 | 12 | 324 | 0.0 | 0.0 | 0.00 | 0.00 | 0.00 | 88 | 1023.1 |
| 20260506101659 | 12 | 325 | 0.0 | 0.0 | 0.00 | 0.00 | 0.00 | 88 | 1023.1 |
| 20260506101155 | 12 | 322 | 0.0 | 0.0 | 0.00 | 0.00 | 0.00 | 88 | 1023.2 |
| 20260506100654 | 12 | 322 | 0.0 | 0.0 | 0.00 | 0.00 | 0.00 | 88 | 1023.2 |
| 20260506100151 | 12 | 322 | 0.0 | 0.0 | 0.00 | 0.00 | 0.00 | 88 | 1023.1 |
| 20260506095649 | 12 | 322 | 0.0 | 0.0 | 0.00 | 0.00 | 0.00 | 88 | 1023.0 |
| 20260506095146 | 12 | 323 | 0.0 | 0.0 | 0.00 | 0.00 | 0.00 | 88 | 1023.4 |
| 20260506094643 | 12 | 322 | 0.0 | 0.0 | 0.00 | 0.00 | 0.00 | 88 | 1023.2 |
| 20260506094141 | 12 | 324 | 0.0 | 0.0 | 0.00 | 0.00 | 0.00 | 89 | 1023.3 |
| 20260506093640 | 12 | 319 | 0.0 | 0.0 | 0.00 | 0.00 | 0.00 | 89 | 1023.1 |
| 20260506093136 | 12 | 323 | 0.0 | 0.0 | 0.00 | 0.00 | 0.00 | 89 | 1023.3 |
| 20260506092634 | 12 | 323 | 0.0 | 0.0 | 0.00 | 0.00 | 0.00 | 89 | 1023.2 |
| 20260506092131 | 12 | 324 | 0.0 | 0.0 | 0.00 | 0.00 | 0.00 | 90 | 1023.4 |
| 20260506091629 | 12 | 324 | 0.0 | 0.0 | 0.00 | 0.00 | 0.00 | 90 | 1023.3 |
| 20260506091126 | 12 | 324 | 0.0 | 0.0 | 0.00 | 0.00 | 0.00 | 89 | 1023.1 |
| 20260506090625 | 12 | 322 | 0.0 | 0.0 | 0.00 | 0.00 | 0.00 | 89 | 1023.1 |
| 20260506090120 | 12 | 321 | 0.0 | 0.0 | 0.00 | 0.00 | 0.00 | 89 | 1023.2 |
| 20260506085617 | 12 | 318 | 0.0 | 0.0 | 0.00 | 0.00 | 0.00 | 89 | 1023.1 |
| 20260506085114 | 11 | 323 | 0.0 | 0.0 | 0.00 | 0.00 | 0.00 | 90 | 1023.2 |
| 20260506084610 | 11 | 323 | 0.0 | 0.0 | 0.00 | 0.00 | 0.00 | 90 | 1023.2 |
| 20260506084107 | 11 | 324 | 0.0 | 0.0 | 0.00 | 0.00 | 0.00 | 90 | 1023.2 |
| 20260506083604 | 11 | 324 | 0.0 | 0.0 | 0.00 | 0.00 | 0.00 | 90 | 1023.3 |
| 20260506083101 | 11 | 324 | 0.0 | 0.0 | 0.00 | 0.00 | 0.00 | 90 | 1023.2 |
| 20260506082558 | 11 | 320 | 0.0 | 0.0 | 0.00 | 0.00 | 0.00 | 90 | 1023.3 |
| 20260506082054 | 11 | 323 | 0.0 | 0.0 | 0.00 | 0.00 | 0.00 | 90 | 1023.2 |
| 20260506081552 | 11 | 323 | 0.0 | 0.0 | 0.00 | 0.00 | 0.00 | 90 | 1023.3 |
| 20260506081049 | 11 | 323 | 0.0 | 0.0 | 0.00 | 0.00 | 0.00 | 90 | 1023.2 |
| 20260506080547 | 11 | 322 | 0.0 | 0.0 | 0.00 | 0.00 | 0.00 | 90 | 1023.2 |
| 20260506073027 | 11 | 324 | 0.0 | 0.0 | 0.00 | 0.00 | 0.00 | 92 | 1022.9 |
| 20260506072524 | 11 | 322 | 0.0 | 0.0 | 0.00 | 0.00 | 0.00 | 92 | 1022.8 |
| 20260506072022 | 11 | 320 | 0.0 | 0.0 | 0.00 | 0.00 | 0.00 | 91 | 1023.0 |
| 20260506071520 | 11 | 321 | 0.0 | 0.0 | 0.00 | 0.00 | 0.00 | 91 | 1022.9 |
| 20260506071017 | 11 | 316 | 0.0 | 0.0 | 0.00 | 0.00 | 0.00 | 91 | 1022.8 |
| 20260506070514 | 11 | 316 | 0.0 | 0.0 | 0.00 | 0.00 | 0.00 | 91 | 1022.9 |
| 20260506062451 | 11 | 322 | 0.0 | 0.0 | 0.00 | 0.20 | 0.20 | 92 | 1022.7 |
| 20260506061947 | 10 | 322 | 0.0 | 0.0 | 0.00 | 0.20 | 0.20 | 92 | 1022.8 |
| 20260506061444 | 11 | 322 | 0.0 | 0.0 | 0.00 | 0.20 | 0.20 | 92 | 1022.5 |
| 20260506060942 | 10 | 323 | 0.0 | 0.0 | 0.00 | 0.20 | 0.20 | 92 | 1022.6 |
| 20260506060440 | 10 | 322 | 0.0 | 0.0 | 0.00 | 0.20 | 0.20 | 92 | 1022.6 |
| 20260506051412 | 11 | 326 | 0.0 | 0.0 | 0.00 | 0.20 | 0.20 | 90 | 1022.4 |
| 20260506050909 | 11 | 322 | 0.0 | 0.0 | 0.00 | 0.20 | 0.20 | 89 | 1022.1 |
| 20260506050406 | 11 | 335 | 0.0 | 0.0 | 0.00 | 0.20 | 0.20 | 89 | 1022.1 |
| 20260506044857 | 12 | 325 | 0.0 | 0.0 | 0.00 | 0.20 | 0.20 | 87 | 1022.0 |
| 20260506044355 | 12 | 324 | 0.0 | 0.0 | 0.00 | 0.20 | 0.20 | 87 | 1021.9 |
| 20260506043851 | 12 | 324 | 0.0 | 0.0 | 0.00 | 0.20 | 0.20 | 87 | 1022.0 |
| 20260506043348 | 12 | 322 | 0.0 | 0.0 | 0.00 | 0.20 | 0.20 | 87 | 1021.8 |
| 20260506042847 | 12 | 324 | 0.0 | 0.0 | 0.00 | 0.20 | 0.20 | 87 | 1021.6 |
| 20260506042346 | 12 | 326 | 0.0 | 0.0 | 0.00 | 0.20 | 0.20 | 87 | 1021.9 |
| 20260506041844 | 12 | 327 | 0.0 | 0.0 | 0.00 | 0.20 | 0.20 | 87 | 1021.8 |
| 20260506041341 | 12 | 326 | 0.0 | 0.0 | 0.00 | 0.20 | 0.20 | 87 | 1021.5 |
| 20260506040837 | 12 | 327 | 0.0 | 0.0 | 0.00 | 0.20 | 0.20 | 87 | 1021.4 |
| 20260506040335 | 12 | 321 | 0.0 | 0.0 | 0.00 | 0.20 | 0.20 | 86 | 1021.3 |
| 20260506035831 | 12 | 322 | 0.0 | 0.0 | 0.00 | 0.20 | 0.20 | 85 | 1021.3 |
| 20260506035329 | 13 | 324 | 0.0 | 0.0 | 0.00 | 0.20 | 0.20 | 85 | 1021.1 |
| 20260506034826 | 13 | 324 | 0.0 | 0.0 | 0.00 | 0.20 | 0.20 | 84 | 1021.1 |
| 20260506034323 | 13 | 326 | 0.0 | 0.0 | 0.00 | 0.20 | 0.20 | 84 | 1020.8 |
| 20260506033820 | 13 | 326 | 0.0 | 0.0 | 0.00 | 0.20 | 0.20 | 83 | 1020.8 |
| 20260506033317 | 13 | 322 | 0.0 | 0.0 | 0.00 | 0.20 | 0.20 | 82 | 1020.8 |
| 20260506032814 | 13 | 321 | 0.0 | 0.0 | 0.00 | 0.20 | 0.20 | 82 | 1020.8 |
| 20260506032311 | 13 | 319 | 0.0 | 0.0 | 0.00 | 0.20 | 0.20 | 81 | 1020.7 |
| 20260506031807 | 14 | 321 | 0.0 | 0.0 | 0.00 | 0.20 | 0.20 | 81 | 1020.7 |
| 20260506031305 | 14 | 319 | 0.0 | 0.0 | 0.00 | 0.20 | 0.20 | 80 | 1020.6 |
| 20260506030802 | 14 | 325 | 0.0 | 0.0 | 0.00 | 0.20 | 0.20 | 80 | 1020.7 |
| 20260506030300 | 14 | 325 | 0.0 | 0.0 | 0.00 | 0.20 | 0.20 | 80 | 1020.5 |
| 20260506025757 | 14 | 245 | 0.0 | 0.0 | 0.00 | 0.20 | 0.20 | 79 | 1020.3 |
| 20260506025253 | 14 | 320 | 0.0 | 0.0 | 0.00 | 0.20 | 0.20 | 79 | 1020.4 |
| 20260506024750 | 15 | 316 | 0.0 | 0.0 | 0.00 | 0.20 | 0.20 | 79 | 1020.1 |
| 20260506024247 | 15 | 315 | 0.0 | 0.0 | 0.00 | 0.20 | 0.20 | 78 | 1020.1 |
| 20260506023743 | 15 | 308 | 0.0 | 0.0 | 0.00 | 0.20 | 0.20 | 78 | 1020.1 |
| 20260506023240 | 15 | 330 | 0.0 | 0.0 | 0.00 | 0.20 | 0.20 | 78 | 1020.2 |
| 20260506022736 | 15 | 344 | 0.0 | 0.0 | 0.00 | 0.20 | 0.20 | 78 | 1020.3 |
| 20260506022235 | 15 | 321 | 0.0 | 0.0 | 0.00 | 0.20 | 0.20 | 78 | 1020.1 |
| 20260506021732 | 15 | 325 | 0.0 | 0.0 | 0.00 | 0.20 | 0.20 | 77 | 1020.3 |
| 20260506021224 | 15 | 304 | 0.0 | 0.0 | 0.00 | 0.20 | 0.20 | 78 | 1019.9 |
| 20260506020720 | 15 | 317 | 0.0 | 0.0 | 0.00 | 0.20 | 0.20 | 78 | 1020.0 |
| 20260506020218 | 15 | 330 | 0.0 | 0.0 | 0.00 | 0.20 | 0.20 | 77 | 1019.8 |
| 20260506015716 | 15 | 324 | 0.0 | 0.0 | 0.00 | 0.20 | 0.20 | 77 | 1019.8 |
| 20260506015213 | 15 | 298 | 0.0 | 0.0 | 0.00 | 0.20 | 0.20 | 76 | 1019.8 |
| 20260506014710 | 16 | 352 | 0.0 | 0.0 | 0.00 | 0.20 | 0.20 | 77 | 1019.8 |
| 20260506014206 | 16 | 317 | 0.0 | 0.0 | 0.00 | 0.20 | 0.20 | 76 | 1019.8 |
| 20260506013704 | 16 | 326 | 0.0 | 0.0 | 0.00 | 0.20 | 0.20 | 77 | 1019.8 |
| 20260506013201 | 16 | 322 | 0.0 | 0.0 | 0.00 | 0.20 | 0.20 | 76 | 1019.7 |
| 20260506012657 | 16 | 309 | 0.0 | 0.0 | 0.00 | 0.20 | 0.20 | 77 | 1019.7 |
| 20260506012154 | 16 | 308 | 0.0 | 0.0 | 0.00 | 0.20 | 0.20 | 77 | 1019.8 |
| 20260506011651 | 16 | 270 | 0.0 | 0.0 | 0.00 | 0.20 | 0.20 | 75 | 1019.8 |
| 20260506011147 | 16 | 312 | 0.0 | 0.0 | 0.00 | 0.20 | 0.20 | 76 | 1019.7 |
| 20260506010646 | 16 | 110 | 0.0 | 0.0 | 0.00 | 0.20 | 0.20 | 75 | 1019.8 |
| 20260506010143 | 16 | 304 | 0.0 | 0.0 | 0.00 | 0.20 | 0.20 | 75 | 1019.7 |
| 20260506005640 | 17 | 323 | 0.0 | 0.0 | 0.00 | 0.20 | 0.20 | 74 | 1019.7 |
| 20260506005136 | 17 | 325 | 0.0 | 0.0 | 0.00 | 0.20 | 0.20 | 73 | 1019.6 |
| 20260506004632 | 17 | 325 | 0.0 | 0.0 | 0.00 | 0.20 | 0.20 | 74 | 1019.6 |
| 20260506004129 | 17 | 249 | 0.0 | 0.0 | 0.00 | 0.20 | 0.20 | 73 | 1019.7 |
| 20260506003620 | 17 | 306 | 0.0 | 0.0 | 0.00 | 0.20 | 0.20 | 73 | 1019.7 |
| 20260506003117 | 17 | 316 | 0.0 | 0.0 | 0.00 | 0.20 | 0.20 | 72 | 1019.4 |
| 20260506002613 | 17 | 301 | 0.0 | 0.0 | 0.00 | 0.20 | 0.20 | 72 | 1019.3 |
| 20260506002109 | 17 | 321 | 0.0 | 0.0 | 0.00 | 0.20 | 0.20 | 72 | 1019.4 |
| 20260506001605 | 17 | 321 | 0.0 | 0.0 | 0.00 | 0.20 | 0.20 | 72 | 1019.3 |
| 20260506001102 | 17 | 322 | 0.0 | 0.0 | 0.00 | 0.20 | 0.20 | 71 | 1019.2 |
| 20260506000600 | 17 | 322 | 0.0 | 0.0 | 0.00 | 0.20 | 0.20 | 74 | 1019.3 |
| 20260506000057 | 17 | 340 | 0.0 | 0.0 | 0.00 | 0.20 | 0.20 | 74 | 1019.3 |
| 20260505235555 | 17 | 312 | 0.0 | 0.0 | 0.00 | 0.20 | 0.20 | 73 | 1019.3 |
| 20260505235052 | 17 | 308 | 0.0 | 0.0 | 0.00 | 0.20 | 0.20 | 73 | 1019.3 |
| 20260505234549 | 17 | 339 | 0.0 | 0.0 | 0.00 | 0.20 | 0.20 | 74 | 1019.3 |
| 20260505234045 | 17 | 326 | 0.0 | 0.0 | 0.00 | 0.20 | 0.20 | 74 | 1019.4 |